Location: Loup Canal
(41.4930°N, 97.5670°W)
Time: 20:36:57
(UTC-05:00)

Daily predictions for brighter satellites

Satellite Brightness Start Highest point End
(mag) Time Altitude Azimuth Time Altitude Azimuth Time Altitude Azimuth
Cosmos 1048 Rocket 4.3 21:36:49 10° S 21:41:55 50° ESE 21:47:06 10° NNE
Cosmos 1825 Rocket 3.9 21:38:20 10° SSE 21:42:37 48° E 21:46:55 10° NNE
NOSS 2-3 (C) 4.4 21:39:13 10° SW 21:43:45 64° NW 21:49:05 10° NNE
USA 215 3.5 21:41:24 10° SE 21:47:56 69° SW 21:54:29 10° NW
Meteor 2-5 Rocket 3.9 21:48:41 10° S 21:54:35 70° E 22:00:29 10° NNE
Cosmos 2285 Rocket 4.1 21:52:03 10° S 21:58:12 57° ESE 22:04:22 10° NNE
Cosmos 1437 3.7 21:55:29 10° NNE 21:58:21 30° ENE 22:00:50 12° SE
CZ-4B DEB 4.4 21:56:51 10° SSE 22:00:18 82° ENE 22:03:47 10° N
Cosmos 2263 Rocket 3.7 21:56:59 10° SW 22:02:21 42° WNW 22:07:45 10° NNE
Cosmos 1452 Rocket 4.0 21:58:14 10° NNW 22:03:29 63° WSW 22:08:39 10° S
Spot 2 Rocket 4.0 21:59:04 10° S 22:04:03 61° W 22:09:05 10° NNW
Cosmos 1420 Rocket 4.3 21:59:41 10° NNW 22:04:51 69° WSW 22:09:59 10° S
GENESIS II 4.1 22:03:07 10° SSW 22:06:59 79° ESE 22:10:55 10° NE
Cosmos 2266 Rocket 4.3 22:00:48 10° N 22:07:11 74° W 22:13:27 10° S
Cosmos 1340 4.3 22:13:13 10° NNE 22:16:05 20° ENE 22:18:05 14° ESE
Terra 3.6 22:14:51 10° ESE 22:17:58 18° ENE 22:21:07 10° NNE
In-Cosmos 22 4.2 22:13:44 10° S 22:19:15 86° E 22:24:57 10° N
Nadezhda 2 Rocket 4.5 22:15:45 10° N 22:22:03 81° E 22:28:08 10° S
Cosmos 1110 Rocket 4.4 22:17:33 10° N 22:22:34 48° ENE 22:26:21 17° SE
BREEZE-M DEB (TANK) 3.5 22:13:40 10° WSW 22:24:41 90° N 22:28:02 10° ENE
SPOT 1/Viking Rocket 4.2 22:22:20 16° SE 22:26:03 40° ENE 22:30:50 10° N
H-2A R/B 2.1 22:21:14 12° SSE 22:26:13 87° ENE 22:31:39 10° NNW
Cosmos-2242 3.0 22:24:02 10° N 22:28:27 77° E 22:31:59 16° SSE
Cosmos 1315 Rocket 3.5 22:24:36 10° SSW 22:28:35 57° WNW 22:32:39 10° N
Cosmos 1674 2.9 22:25:41 15° SSE 22:28:41 52° E 22:32:26 10° NNE
Iridium 81 4.3 22:29:09 28° SE 22:29:51 36° E 22:32:26 10° NNE
MetOp-B 4.2 22:25:41 12° SSE 22:30:42 86° WSW 22:36:06 10° NNW
Cosmos 2084 3.1 22:29:31 10° NW 22:33:23 89° NE 22:35:44 22° SE
Cosmos 1269 Rocket 4.2 22:30:20 10° SSW 22:35:37 77° WNW 22:40:58 10° NNE
Cosmos 1331 Rocket 4.2 22:31:49 10° NNW 22:36:57 58° ENE 22:40:24 21° SE
USA 238 DEB 4.0 22:31:40 10° NNW 22:38:47 67° NE 22:44:13 19° SE
Cosmos 1842 Rocket 4.4 22:34:48 10° N 22:38:48 35° ENE 22:40:57 22° SE
USA 238 4.0 22:31:46 10° NNW 22:38:53 66° NE 22:44:19 19° SE
Cosmos 1553 Rocket 4.0 22:33:39 13° S 22:39:04 59° E 22:45:02 10° NNE
ATLAS 3B R/B 3.1 22:33:06 10° NNW 22:39:35 51° NE 22:44:26 17° ESE
Cosmos 494 Rocket 3.9 22:37:58 10° S 22:43:10 72° ESE 22:48:26 10° NNE
DMSP B5D2-2 4.0 22:41:24 10° NNE 22:46:39 72° ESE 22:51:24 12° S
Helios 1A 3.1 22:45:57 25° SE 22:48:15 60° ENE 22:52:24 10° N
Cosmos 1726 2.2 22:44:36 10° N 22:48:20 59° E 22:50:03 29° SSE
SPOT 5 3.0 22:47:50 22° SSE 22:51:06 71° ENE 22:56:22 10° N
NOSS 3-2 (A) 4.4 22:44:16 10° NNW 22:51:38 56° NE 22:57:41 19° ESE
Meteor 2-10 4.2 22:47:11 10° N 22:52:35 65° E 22:56:00 24° SSE
Cosmos 2278 Rocket 2.8 22:50:05 22° SSE 22:53:01 36° ESE 22:58:09 10° NE
Resurs 01 Rocket 4.4 22:54:55 10° WSW 22:56:17 11° W 22:57:38 10° WNW
Cosmos 1238 Rocket 4.3 22:53:49 10° SW 22:56:18 25° WNW 22:58:52 10° NNW
OAO 3 Rocket 3.8 22:53:09 10° WSW 22:57:44 39° S 22:59:32 28° SE
Helios 1B rocket 2.7 22:54:03 10° NNE 22:58:01 47° E 22:59:36 30° SSE
Lacrosse 5 3.1 22:54:36 10° WSW 22:59:26 44° NW 23:04:18 10° NE
SL-8 R/B 3.7 22:54:55 10° WSW 22:59:46 84° NNW 23:04:37 10° ENE
ARGOS 4.3 22:55:43 10° SSW 23:00:44 38° W 23:05:47 10° NNW
SL-14 R/B 3.7 23:02:21 34° SE 23:03:23 43° E 23:07:07 10° NNE
Cosmos 1302 Rocket 4.3 22:59:06 10° NNW 23:04:19 56° ENE 23:06:56 28° SE
COSMOS 2406 3.2 22:59:25 10° NNW 23:05:14 87° ENE 23:08:28 27° SSE
Cosmos 1346 Rocket 4.1 23:01:47 10° NNW 23:05:29 36° W 23:08:20 15° SSW
ATLAS 2AS CENTAUR R/B 3.4 22:58:02 10° SW 23:05:50 70° NW 23:13:59 10° NNE
Cosmos 2251 Rocket 3.6 23:05:50 21° S 23:09:18 62° ESE 23:14:33 10° NNE
ERS-1 Rocket 3.7 23:06:46 17° S 23:10:25 49° W 23:15:19 10° NNW
KORONAS-FOTON 4.3 23:08:30 18° SSW 23:11:13 59° W 23:15:07 10° N
CZ-2C R/B 3.7 23:09:46 27° SE 23:12:47 53° ENE 23:18:23 10° N
Cosmos 1844 4.1 23:09:13 10° SW 23:14:51 64° WNW 23:20:36 10° NNE
Cosmos 1844 Rocket 3.6 23:09:23 10° SW 23:14:52 49° WNW 23:20:22 10° NNE
NOSS 3-2 (C) 4.4 23:08:47 10° NNW 23:16:13 59° NE 23:21:38 22° ESE
Cosmos 2221 2.9 23:13:41 10° N 23:17:53 48° ENE 23:19:04 37° SE
Meteor 1-29 2.8 23:20:04 10° NNE 23:23:27 71° E 23:23:52 61° SSE
Cosmos 921 Rocket 4.2 23:19:34 10° NW 23:23:42 36° W 23:26:03 21° SSW
Cosmos 1745 Rocket 4.2 23:27:42 10° NNW 23:33:59 67° W 23:37:41 26° S
ATLAS 5 CENTAUR R/B 2.0 23:35:21 42° ESE 23:35:29 42° ESE 23:40:01 10° NE
Landsat 7 4.3 23:33:45 29° SSW 23:35:54 53° W 23:40:34 10° NNW
Cosmos 2082 Rocket 3.1 23:35:35 10° N 23:40:56 39° ENE 23:43:22 26° ESE
NOSS 2-2 (E) 3.3 23:42:08 56° ESE 23:42:08 56° ESE 23:46:20 10° NE
NOSS 3-4 (A) 3.3 23:37:55 16° SSW 23:42:59 78° ESE 23:49:24 10° NE
NOSS 3-4 (C) 3.3 23:38:08 16° SSW 23:43:04 77° ESE 23:49:29 10° NE
RESURS DK-1 3.7 23:46:15 25° E 23:46:15 25° E 23:48:51 10° NE
Cosmos 1833 Rocket 3.2 23:40:31 10° NNW 23:45:57 47° ENE 23:48:06 32° ESE
Cosmos 1461 3.1 23:44:19 27° SW 23:46:52 85° WNW 23:51:40 10° NNE
CARTOSAT-1 4.2 23:47:09 36° SSW 23:48:28 49° W 23:52:41 10° NNW
CENTAUR R/B 3.7 23:40:56 10° NNW 23:48:36 51° NE 23:54:15 21° ESE
Cosmos 1626 1.9 23:48:43 77° SE 23:48:54 80° E 23:52:38 10° N
COBE Rocket 4.3 23:44:27 10° NNE 23:49:23 48° E 23:50:20 43° SE
ADEOS Rocket 4.3 23:45:14 10° NE 23:49:57 23° E 23:50:52 22° ESE
Nimbus 7 Rocket 4.4 23:44:30 10° NNE 23:50:33 88° WNW 23:53:49 29° SSW
Cosmos 1340 4.4 23:48:34 10° NW 23:51:43 25° W 23:52:54 21° WSW
Terra 2.3 23:53:44 36° SSW 23:55:17 52° W 23:59:57 10° NNW
